LIEO Airport Information

Runway Information
Runway 05 Length 8025 ft width 148 ft
Elevation 35 ft Threshold 805 ft Heading 53
Runway 23 Length 8025 ft Width 148 ft
Elevation 19 ft Threshold 495 ft Heading 233
Airport Frequencies
Type APP Name OLBIA RADA Frequency 125.95 MHZ
Type ATIS Name ATIS Frequency 113.9 MHZ
Type TWR Name OLBIA TWR Frequency 118.975 MHZ
Airport Navaids
Type VOR-DME Name Olbia Costa Smeralda Frequency 113900 KHZ
Type NDB Name Olbia Costa Smeralda Frequency 357 KHZ
Airport Weather Information & NOTAM
ADDS - METARS form results

(1316 UTC 22 June 2018)
 
METAR text: LIEO 221250Z 28012KT 240V320 9999 FEW030 33/15 Q1012
Conditions at: LIEO (OLBIA/COSTA SMER, IT) observed 1250 UTC 22 June 2018
Temperature: 33.0°C (91°F)
Dewpoint: 15.0°C (59°F) [RH = 34%]
Pressure (altimeter): 29.88 inches Hg (1012.0 mb)
Winds: from the W (280 degrees) at 14 MPH (12 knots; 6.2 m/s)
Visibility: 6 or more miles (10+ km)
Ceiling: at least 12,000 feet AGL
Clouds: few clouds at 3000 feet AGL
Weather: no significant weather observed at this time

METAR text: LIEO 221220Z 23016KT 9999 FEW040 33/15 Q1012
Conditions at: LIEO (OLBIA/COSTA SMER, IT) observed 1220 UTC 22 June 2018
Temperature: 33.0°C (91°F)
Dewpoint: 15.0°C (59°F) [RH = 34%]
Pressure (altimeter): 29.88 inches Hg (1012.0 mb)
Winds: from the SW (230 degrees) at 18 MPH (16 knots; 8.3 m/s)
Visibility: 6 or more miles (10+ km)
Ceiling: at least 12,000 feet AGL
Clouds: few clouds at 4000 feet AGL
Weather: no significant weather observed at this time